Click PM10 Analyzer
 
 
260 Record Found
Sl. NoIndustry NamestationIdanalyserIdParameterProcess ValueUnitSubmitted DateTimestamp of Analyser
1 Koderma Thermal Power StationKTPS_DVCjhar_analyzer_69Atmospheric Pressure 959.92mBar27-09-2021 05:28:342021-09-27 04:45
2 Koderma Thermal Power StationKTPS_DVCjhar_analyzer_69NO11.87ug/m327-09-2021 05:28:342021-09-27 04:45
3 Koderma Thermal Power StationKTPS_DVCjhar_analyzer_69Solar Radiation 1.31W/m227-09-2021 05:28:312021-09-27 04:45
4 Koderma Thermal Power StationKTPS_DVCjhar_analyzer_69Temperature23.69Degree27-09-2021 05:28:242021-09-27 04:45
5 Koderma Thermal Power StationKTPS_DVCjhar_analyzer_69Relative humidity 100.00%27-09-2021 05:28:242021-09-27 04:45
6 Koderma Thermal Power StationKTPS_DVCjhar_analyzer_69Wind_Speed0.94m/s27-09-2021 05:28:232021-09-27 04:45
7 Koderma Thermal Power StationKTPS_DVCjhar_analyzer_69Wind_Direction122.06Degree27-09-2021 05:28:232021-09-27 04:45
8 Koderma Thermal Power StationKTPS_DVCjhar_analyzer_69O34.74ug/m327-09-2021 05:28:202021-09-27 04:45
9 Koderma Thermal Power StationKTPS_DVCjhar_analyzer_69PM2.514.81ug/m327-09-2021 05:28:192021-09-27 04:45
10 Koderma Thermal Power StationKTPS_DVCjhar_analyzer_69CO2189.57mg/m327-09-2021 05:28:112021-09-27 04:45
11 Koderma Thermal Power StationKTPS_DVCjhar_analyzer_69SO24.24ug/m327-09-2021 05:28:102021-09-27 04:45
12 Koderma Thermal Power StationKTPS_DVCjhar_analyzer_69NH311.22ug/m327-09-2021 05:28:092021-09-27 04:45
13 Koderma Thermal Power StationKTPS_DVCjhar_analyzer_69 NO245.08ug/m327-09-2021 05:28:092021-09-27 04:45
14 Koderma Thermal Power StationKTPS_DVCjhar_analyzer_69NO9.50ug/m327-09-2021 05:13:542021-09-27 04:30
15 Koderma Thermal Power StationKTPS_DVCjhar_analyzer_69Solar Radiation 1.33W/m227-09-2021 05:13:512021-09-27 04:30
16 Koderma Thermal Power StationKTPS_DVCjhar_analyzer_69Atmospheric Pressure 959.93mBar27-09-2021 05:13:512021-09-27 04:30
17 Koderma Thermal Power StationKTPS_DVCjhar_analyzer_69Wind_Direction120.37Degree27-09-2021 05:13:472021-09-27 04:30
18 Koderma Thermal Power StationKTPS_DVCjhar_analyzer_69Temperature23.67Degree27-09-2021 05:13:462021-09-27 04:30
19 Koderma Thermal Power StationKTPS_DVCjhar_analyzer_69Relative humidity 100.00%27-09-2021 05:13:462021-09-27 04:30
20 Koderma Thermal Power StationKTPS_DVCjhar_analyzer_69Wind_Speed0.94m/s27-09-2021 05:13:442021-09-27 04:30
21 Koderma Thermal Power StationKTPS_DVCjhar_analyzer_69PM2.514.81ug/m327-09-2021 05:13:422021-09-27 04:30
22 Koderma Thermal Power StationKTPS_DVCjhar_analyzer_69O34.83ug/m327-09-2021 05:13:402021-09-27 04:30
23 Koderma Thermal Power StationKTPS_DVCjhar_analyzer_69CO2188.57mg/m327-09-2021 05:13:352021-09-27 04:30
24 Koderma Thermal Power StationKTPS_DVCjhar_analyzer_69NH312.11ug/m327-09-2021 05:13:332021-09-27 04:30
25 Koderma Thermal Power StationKTPS_DVCjhar_analyzer_69SO24.19ug/m327-09-2021 05:13:322021-09-27 04:30
26 Koderma Thermal Power StationKTPS_DVCjhar_analyzer_69 NO241.44ug/m327-09-2021 05:13:292021-09-27 04:30
27 Koderma Thermal Power StationKTPS_DVCjhar_analyzer_69NO8.00ug/m327-09-2021 04:59:462021-09-27 04:15
28 Koderma Thermal Power StationKTPS_DVCjhar_analyzer_69Atmospheric Pressure 959.92mBar27-09-2021 04:59:462021-09-27 04:15
29 Koderma Thermal Power StationKTPS_DVCjhar_analyzer_69Solar Radiation 1.32W/m227-09-2021 04:59:432021-09-27 04:15
30 Koderma Thermal Power StationKTPS_DVCjhar_analyzer_69Temperature23.63Degree27-09-2021 04:59:382021-09-27 04:15
31 Koderma Thermal Power StationKTPS_DVCjhar_analyzer_69Relative humidity 100.00%27-09-2021 04:59:382021-09-27 04:15
32 Koderma Thermal Power StationKTPS_DVCjhar_analyzer_69Wind_Direction120.12Degree27-09-2021 04:59:372021-09-27 04:15
33 Koderma Thermal Power StationKTPS_DVCjhar_analyzer_69O34.76ug/m327-09-2021 04:59:362021-09-27 04:15
34 Koderma Thermal Power StationKTPS_DVCjhar_analyzer_69Wind_Speed0.89m/s27-09-2021 04:59:362021-09-27 04:15
35 Koderma Thermal Power StationKTPS_DVCjhar_analyzer_69PM2.514.81ug/m327-09-2021 04:59:322021-09-27 04:15
36 Koderma Thermal Power StationKTPS_DVCjhar_analyzer_69SO24.26ug/m327-09-2021 04:59:282021-09-27 04:15
37 Koderma Thermal Power StationKTPS_DVCjhar_analyzer_69CO2187.75mg/m327-09-2021 04:59:282021-09-27 04:15
38 Koderma Thermal Power StationKTPS_DVCjhar_analyzer_69 NO242.19ug/m327-09-2021 04:59:262021-09-27 04:15
39 Koderma Thermal Power StationKTPS_DVCjhar_analyzer_69NH312.28ug/m327-09-2021 04:59:262021-09-27 04:15
40 Koderma Thermal Power StationKTPS_DVCjhar_analyzer_69NO8.34ug/m327-09-2021 04:44:332021-09-27 04:00
41 Koderma Thermal Power StationKTPS_DVCjhar_analyzer_69Atmospheric Pressure 959.76mBar27-09-2021 04:44:302021-09-27 04:00
42 Koderma Thermal Power StationKTPS_DVCjhar_analyzer_69Solar Radiation 1.34W/m227-09-2021 04:44:272021-09-27 04:00
43 Koderma Thermal Power StationKTPS_DVCjhar_analyzer_69Wind_Direction115.56Degree27-09-2021 04:44:252021-09-27 04:00
44 Koderma Thermal Power StationKTPS_DVCjhar_analyzer_69Relative humidity 100.00%27-09-2021 04:44:242021-09-27 04:00
45 Koderma Thermal Power StationKTPS_DVCjhar_analyzer_69Wind_Speed0.90m/s27-09-2021 04:44:242021-09-27 04:00
46 Koderma Thermal Power StationKTPS_DVCjhar_analyzer_69Temperature23.73Degree27-09-2021 04:44:242021-09-27 04:00
47 Koderma Thermal Power StationKTPS_DVCjhar_analyzer_69PM2.514.82ug/m327-09-2021 04:44:212021-09-27 04:00
48 Koderma Thermal Power StationKTPS_DVCjhar_analyzer_69O34.56ug/m327-09-2021 04:44:202021-09-27 04:00
49 Koderma Thermal Power StationKTPS_DVCjhar_analyzer_69SO24.32ug/m327-09-2021 04:44:162021-09-27 04:00
50 Koderma Thermal Power StationKTPS_DVCjhar_analyzer_69CO2187.00mg/m327-09-2021 04:44:152021-09-27 04:00
51 Koderma Thermal Power StationKTPS_DVCjhar_analyzer_69NH314.02ug/m327-09-2021 04:44:152021-09-27 04:00
52 Koderma Thermal Power StationKTPS_DVCjhar_analyzer_69 NO241.65ug/m327-09-2021 04:44:122021-09-27 04:00
53 Koderma Thermal Power StationKTPS_DVCjhar_analyzer_69NO5.18ug/m327-09-2021 04:28:452021-09-27 03:45
54 Koderma Thermal Power StationKTPS_DVCjhar_analyzer_69Atmospheric Pressure 959.78mBar27-09-2021 04:28:432021-09-27 03:45
55 Koderma Thermal Power StationKTPS_DVCjhar_analyzer_69Solar Radiation 1.30W/m227-09-2021 04:28:422021-09-27 03:45
56 Koderma Thermal Power StationKTPS_DVCjhar_analyzer_69Temperature23.86Degree27-09-2021 04:28:392021-09-27 03:45
57 Koderma Thermal Power StationKTPS_DVCjhar_analyzer_69Relative humidity 100.00%27-09-2021 04:28:392021-09-27 03:45
58 Koderma Thermal Power StationKTPS_DVCjhar_analyzer_69Wind_Speed0.98m/s27-09-2021 04:28:352021-09-27 03:45
59 Koderma Thermal Power StationKTPS_DVCjhar_analyzer_69Wind_Direction109.55Degree27-09-2021 04:28:352021-09-27 03:45
60 Koderma Thermal Power StationKTPS_DVCjhar_analyzer_69PM2.515.84ug/m327-09-2021 04:28:322021-09-27 03:45
61 Koderma Thermal Power StationKTPS_DVCjhar_analyzer_69O34.54ug/m327-09-2021 04:28:322021-09-27 03:45
62 Koderma Thermal Power StationKTPS_DVCjhar_analyzer_69NH313.46ug/m327-09-2021 04:28:282021-09-27 03:45
63 Koderma Thermal Power StationKTPS_DVCjhar_analyzer_69CO2186.14mg/m327-09-2021 04:28:282021-09-27 03:45
64 Koderma Thermal Power StationKTPS_DVCjhar_analyzer_69SO24.19ug/m327-09-2021 04:28:262021-09-27 03:45
65 Koderma Thermal Power StationKTPS_DVCjhar_analyzer_69 NO239.58ug/m327-09-2021 04:28:242021-09-27 03:45
66 Koderma Thermal Power StationKTPS_DVCjhar_analyzer_69Atmospheric Pressure 959.94mBar27-09-2021 04:13:492021-09-27 03:30
67 Koderma Thermal Power StationKTPS_DVCjhar_analyzer_69NO9.86ug/m327-09-2021 04:13:492021-09-27 03:30
68 Koderma Thermal Power StationKTPS_DVCjhar_analyzer_69Solar Radiation 1.30W/m227-09-2021 04:13:462021-09-27 03:30
69 Koderma Thermal Power StationKTPS_DVCjhar_analyzer_69Relative humidity 100.00%27-09-2021 04:13:382021-09-27 03:30
70 Koderma Thermal Power StationKTPS_DVCjhar_analyzer_69Wind_Direction131.52Degree27-09-2021 04:13:372021-09-27 03:30
71 Koderma Thermal Power StationKTPS_DVCjhar_analyzer_69Wind_Speed1.25m/s27-09-2021 04:13:372021-09-27 03:30
72 Koderma Thermal Power StationKTPS_DVCjhar_analyzer_69Temperature23.89Degree27-09-2021 04:13:362021-09-27 03:30
73 Koderma Thermal Power StationKTPS_DVCjhar_analyzer_69O34.61ug/m327-09-2021 04:13:352021-09-27 03:30
74 Koderma Thermal Power StationKTPS_DVCjhar_analyzer_69PM2.515.77ug/m327-09-2021 04:13:332021-09-27 03:30
75 Koderma Thermal Power StationKTPS_DVCjhar_analyzer_69SO24.67ug/m327-09-2021 04:13:272021-09-27 03:30
76 Koderma Thermal Power StationKTPS_DVCjhar_analyzer_69CO2185.57mg/m327-09-2021 04:13:262021-09-27 03:30
77 Koderma Thermal Power StationKTPS_DVCjhar_analyzer_69NH313.28ug/m327-09-2021 04:13:242021-09-27 03:30
78 Koderma Thermal Power StationKTPS_DVCjhar_analyzer_69 NO241.04ug/m327-09-2021 04:13:242021-09-27 03:30
79 Koderma Thermal Power StationKTPS_DVCjhar_analyzer_69NO3.34ug/m327-09-2021 04:01:192021-09-27 03:15
80 Koderma Thermal Power StationKTPS_DVCjhar_analyzer_69Solar Radiation 1.32W/m227-09-2021 04:01:172021-09-27 03:15
81 Koderma Thermal Power StationKTPS_DVCjhar_analyzer_69Atmospheric Pressure 959.83mBar27-09-2021 04:01:172021-09-27 03:15
82 Koderma Thermal Power StationKTPS_DVCjhar_analyzer_69Relative humidity 100.00%27-09-2021 04:01:042021-09-27 03:15
83 Koderma Thermal Power StationKTPS_DVCjhar_analyzer_69PM2.515.77ug/m327-09-2021 04:01:022021-09-27 03:15
84 Koderma Thermal Power StationKTPS_DVCjhar_analyzer_69O34.72ug/m327-09-2021 04:01:002021-09-27 03:15
85 Koderma Thermal Power StationKTPS_DVCjhar_analyzer_69Wind_Direction114.94Degree27-09-2021 04:00:582021-09-27 03:15
86 Koderma Thermal Power StationKTPS_DVCjhar_analyzer_69Temperature23.81Degree27-09-2021 04:00:582021-09-27 03:15
87 Koderma Thermal Power StationKTPS_DVCjhar_analyzer_69Wind_Speed1.18m/s27-09-2021 04:00:582021-09-27 03:15
88 Koderma Thermal Power StationKTPS_DVCjhar_analyzer_69CO2183.88mg/m327-09-2021 04:00:442021-09-27 03:15
89 Koderma Thermal Power StationKTPS_DVCjhar_analyzer_69SO25.73ug/m327-09-2021 04:00:432021-09-27 03:15
90 Koderma Thermal Power StationKTPS_DVCjhar_analyzer_69 NO238.74ug/m327-09-2021 04:00:432021-09-27 03:15
91 Koderma Thermal Power StationKTPS_DVCjhar_analyzer_69NH312.30ug/m327-09-2021 04:00:432021-09-27 03:15
92 Koderma Thermal Power StationKTPS_DVCjhar_analyzer_69Solar Radiation 1.36W/m227-09-2021 03:45:462021-09-27 03:00
93 Koderma Thermal Power StationKTPS_DVCjhar_analyzer_69NO6.40ug/m327-09-2021 03:45:462021-09-27 03:00
94 Koderma Thermal Power StationKTPS_DVCjhar_analyzer_69Atmospheric Pressure 959.89mBar27-09-2021 03:45:462021-09-27 03:00
95 Koderma Thermal Power StationKTPS_DVCjhar_analyzer_69Wind_Direction110.78Degree27-09-2021 03:45:032021-09-27 03:00
96 Koderma Thermal Power StationKTPS_DVCjhar_analyzer_69Wind_Speed1.06m/s27-09-2021 03:45:032021-09-27 03:00
97 Koderma Thermal Power StationKTPS_DVCjhar_analyzer_69Temperature23.74Degree27-09-2021 03:45:022021-09-27 03:00
98 Koderma Thermal Power StationKTPS_DVCjhar_analyzer_69Relative humidity 100.00%27-09-2021 03:45:022021-09-27 03:00
99 Koderma Thermal Power StationKTPS_DVCjhar_analyzer_69PM2.515.78ug/m327-09-2021 03:45:012021-09-27 03:00
100 Koderma Thermal Power StationKTPS_DVCjhar_analyzer_69O34.64ug/m327-09-2021 03:45:012021-09-27 03:00
101 Koderma Thermal Power StationKTPS_DVCjhar_analyzer_69NH39.74ug/m327-09-2021 03:44:492021-09-27 03:00
102 Koderma Thermal Power StationKTPS_DVCjhar_analyzer_69 NO239.54ug/m327-09-2021 03:44:492021-09-27 03:00
103 Koderma Thermal Power StationKTPS_DVCjhar_analyzer_69CO2182.29mg/m327-09-2021 03:44:482021-09-27 03:00
104 Koderma Thermal Power StationKTPS_DVCjhar_analyzer_69SO25.47ug/m327-09-2021 03:44:472021-09-27 03:00
105 Koderma Thermal Power StationKTPS_DVCjhar_analyzer_69NO3.61ug/m327-09-2021 03:29:382021-09-27 02:45
106 Koderma Thermal Power StationKTPS_DVCjhar_analyzer_69Atmospheric Pressure 959.86mBar27-09-2021 03:29:342021-09-27 02:45
107 Koderma Thermal Power StationKTPS_DVCjhar_analyzer_69Solar Radiation 1.34W/m227-09-2021 03:29:322021-09-27 02:45
108 Koderma Thermal Power StationKTPS_DVCjhar_analyzer_69Temperature23.93Degree27-09-2021 03:29:272021-09-27 02:45
109 Koderma Thermal Power StationKTPS_DVCjhar_analyzer_69Relative humidity 100.00%27-09-2021 03:29:262021-09-27 02:45
110 Koderma Thermal Power StationKTPS_DVCjhar_analyzer_69Wind_Direction118.88Degree27-09-2021 03:29:252021-09-27 02:45
111 Koderma Thermal Power StationKTPS_DVCjhar_analyzer_69Wind_Speed0.64m/s27-09-2021 03:29:252021-09-27 02:45
112 Koderma Thermal Power StationKTPS_DVCjhar_analyzer_69O34.65ug/m327-09-2021 03:29:232021-09-27 02:45
113 Koderma Thermal Power StationKTPS_DVCjhar_analyzer_69PM2.521.41ug/m327-09-2021 03:29:222021-09-27 02:45
114 Koderma Thermal Power StationKTPS_DVCjhar_analyzer_69CO2181.00mg/m327-09-2021 03:29:182021-09-27 02:45
115 Koderma Thermal Power StationKTPS_DVCjhar_analyzer_69SO25.39ug/m327-09-2021 03:29:162021-09-27 02:45
116 Koderma Thermal Power StationKTPS_DVCjhar_analyzer_69NH318.16ug/m327-09-2021 03:29:162021-09-27 02:45
117 Koderma Thermal Power StationKTPS_DVCjhar_analyzer_69 NO234.54ug/m327-09-2021 03:29:142021-09-27 02:45
118 Koderma Thermal Power StationKTPS_DVCjhar_analyzer_69Atmospheric Pressure 959.89mBar27-09-2021 03:16:092021-09-27 02:30
119 Koderma Thermal Power StationKTPS_DVCjhar_analyzer_69NO7.37ug/m327-09-2021 03:16:072021-09-27 02:30
120 Koderma Thermal Power StationKTPS_DVCjhar_analyzer_69Solar Radiation 1.39W/m227-09-2021 03:16:052021-09-27 02:30
121 Koderma Thermal Power StationKTPS_DVCjhar_analyzer_69Relative humidity 100.00%27-09-2021 03:15:542021-09-27 02:30
122 Koderma Thermal Power StationKTPS_DVCjhar_analyzer_69Temperature24.03Degree27-09-2021 03:15:542021-09-27 02:30
123 Koderma Thermal Power StationKTPS_DVCjhar_analyzer_69Wind_Direction111.12Degree27-09-2021 03:15:542021-09-27 02:30
124 Koderma Thermal Power StationKTPS_DVCjhar_analyzer_69PM2.521.39ug/m327-09-2021 03:15:512021-09-27 02:30
125 Koderma Thermal Power StationKTPS_DVCjhar_analyzer_69Wind_Speed0.91m/s27-09-2021 03:15:512021-09-27 02:30
126 Koderma Thermal Power StationKTPS_DVCjhar_analyzer_69O34.72ug/m327-09-2021 03:15:482021-09-27 02:30
127 Koderma Thermal Power StationKTPS_DVCjhar_analyzer_69SO25.68ug/m327-09-2021 03:15:282021-09-27 02:30
128 Koderma Thermal Power StationKTPS_DVCjhar_analyzer_69NH39.30ug/m327-09-2021 03:15:252021-09-27 02:30
129 Koderma Thermal Power StationKTPS_DVCjhar_analyzer_69 NO243.84ug/m327-09-2021 03:15:252021-09-27 02:30
130 Koderma Thermal Power StationKTPS_DVCjhar_analyzer_69CO2180.12mg/m327-09-2021 03:15:252021-09-27 02:30
131 Koderma Thermal Power StationKTPS_DVCjhar_analyzer_69NO6.40ug/m327-09-2021 02:59:232021-09-27 02:15
132 Koderma Thermal Power StationKTPS_DVCjhar_analyzer_69Atmospheric Pressure 959.96mBar27-09-2021 02:59:222021-09-27 02:15
133 Koderma Thermal Power StationKTPS_DVCjhar_analyzer_69Solar Radiation 1.31W/m227-09-2021 02:59:192021-09-27 02:15
134 Koderma Thermal Power StationKTPS_DVCjhar_analyzer_69Relative humidity 100.00%27-09-2021 02:59:172021-09-27 02:15
135 Koderma Thermal Power StationKTPS_DVCjhar_analyzer_69Temperature23.99Degree27-09-2021 02:59:162021-09-27 02:15
136 Koderma Thermal Power StationKTPS_DVCjhar_analyzer_69Wind_Speed0.89m/s27-09-2021 02:59:142021-09-27 02:15
137 Koderma Thermal Power StationKTPS_DVCjhar_analyzer_69PM2.521.38ug/m327-09-2021 02:59:132021-09-27 02:15
138 Koderma Thermal Power StationKTPS_DVCjhar_analyzer_69O34.65ug/m327-09-2021 02:59:132021-09-27 02:15
139 Koderma Thermal Power StationKTPS_DVCjhar_analyzer_69Wind_Direction119.51Degree27-09-2021 02:59:122021-09-27 02:15
140 Koderma Thermal Power StationKTPS_DVCjhar_analyzer_69CO2179.29mg/m327-09-2021 02:59:072021-09-27 02:15
141 Koderma Thermal Power StationKTPS_DVCjhar_analyzer_69NH39.97ug/m327-09-2021 02:59:062021-09-27 02:15
142 Koderma Thermal Power StationKTPS_DVCjhar_analyzer_69SO26.08ug/m327-09-2021 02:59:052021-09-27 02:15
143 Koderma Thermal Power StationKTPS_DVCjhar_analyzer_69 NO241.62ug/m327-09-2021 02:59:042021-09-27 02:15
144 Koderma Thermal Power StationKTPS_DVCjhar_analyzer_69NO2.42ug/m327-09-2021 02:44:442021-09-27 02:00
145 Koderma Thermal Power StationKTPS_DVCjhar_analyzer_69Solar Radiation 1.37W/m227-09-2021 02:44:412021-09-27 02:00
146 Koderma Thermal Power StationKTPS_DVCjhar_analyzer_69Atmospheric Pressure 960.21mBar27-09-2021 02:44:372021-09-27 02:00
147 Koderma Thermal Power StationKTPS_DVCjhar_analyzer_69Relative humidity 100.00%27-09-2021 02:44:302021-09-27 02:00
148 Koderma Thermal Power StationKTPS_DVCjhar_analyzer_69PM2.521.39ug/m327-09-2021 02:44:292021-09-27 02:00
149 Koderma Thermal Power StationKTPS_DVCjhar_analyzer_69Temperature24.02Degree27-09-2021 02:44:282021-09-27 02:00
150 Koderma Thermal Power StationKTPS_DVCjhar_analyzer_69Wind_Speed0.57m/s27-09-2021 02:44:282021-09-27 02:00
151 Koderma Thermal Power StationKTPS_DVCjhar_analyzer_69Wind_Direction129.62Degree27-09-2021 02:44:282021-09-27 02:00
152 Koderma Thermal Power StationKTPS_DVCjhar_analyzer_69O34.55ug/m327-09-2021 02:44:272021-09-27 02:00
153 Koderma Thermal Power StationKTPS_DVCjhar_analyzer_69SO25.85ug/m327-09-2021 02:44:202021-09-27 02:00
154 Koderma Thermal Power StationKTPS_DVCjhar_analyzer_69CO2178.62mg/m327-09-2021 02:44:192021-09-27 02:00
155 Koderma Thermal Power StationKTPS_DVCjhar_analyzer_69NH315.20ug/m327-09-2021 02:44:182021-09-27 02:00
156 Koderma Thermal Power StationKTPS_DVCjhar_analyzer_69 NO233.81ug/m327-09-2021 02:44:182021-09-27 02:00
157 Koderma Thermal Power StationKTPS_DVCjhar_analyzer_69Atmospheric Pressure 960.16mBar27-09-2021 02:32:192021-09-27 01:45
158 Koderma Thermal Power StationKTPS_DVCjhar_analyzer_69NO8.22ug/m327-09-2021 02:32:162021-09-27 01:45
159 Koderma Thermal Power StationKTPS_DVCjhar_analyzer_69Solar Radiation 1.37W/m227-09-2021 02:32:132021-09-27 01:45
160 Koderma Thermal Power StationKTPS_DVCjhar_analyzer_69Wind_Direction117.20Degree27-09-2021 02:32:002021-09-27 01:45
161 Koderma Thermal Power StationKTPS_DVCjhar_analyzer_69Temperature24.09Degree27-09-2021 02:31:592021-09-27 01:45
162 Koderma Thermal Power StationKTPS_DVCjhar_analyzer_69Relative humidity 100.00%27-09-2021 02:31:592021-09-27 01:45
163 Koderma Thermal Power StationKTPS_DVCjhar_analyzer_69Wind_Speed0.83m/s27-09-2021 02:31:532021-09-27 01:45
164 Koderma Thermal Power StationKTPS_DVCjhar_analyzer_69O34.64ug/m327-09-2021 02:31:532021-09-27 01:45
165 Koderma Thermal Power StationKTPS_DVCjhar_analyzer_69PM2.515.56ug/m327-09-2021 02:31:472021-09-27 01:45
166 Koderma Thermal Power StationKTPS_DVCjhar_analyzer_69CO2177.43mg/m327-09-2021 02:31:212021-09-27 01:45
167 Koderma Thermal Power StationKTPS_DVCjhar_analyzer_69NH312.95ug/m327-09-2021 02:31:202021-09-27 01:45
168 Koderma Thermal Power StationKTPS_DVCjhar_analyzer_69 NO242.21ug/m327-09-2021 02:31:172021-09-27 01:45
169 Koderma Thermal Power StationKTPS_DVCjhar_analyzer_69SO25.11ug/m327-09-2021 02:31:152021-09-27 01:45
170 Koderma Thermal Power StationKTPS_DVCjhar_analyzer_69Atmospheric Pressure 960.26mBar27-09-2021 02:21:122021-09-27 01:30
171 Koderma Thermal Power StationKTPS_DVCjhar_analyzer_69Relative humidity 100.00%27-09-2021 02:21:092021-09-27 01:30
172 Koderma Thermal Power StationKTPS_DVCjhar_analyzer_69NO1.61ug/m327-09-2021 02:21:082021-09-27 01:30
173 Koderma Thermal Power StationKTPS_DVCjhar_analyzer_69Solar Radiation 1.34W/m227-09-2021 02:21:082021-09-27 01:30
174 Koderma Thermal Power StationKTPS_DVCjhar_analyzer_69Wind_Direction114.17Degree27-09-2021 02:21:022021-09-27 01:30
175 Koderma Thermal Power StationKTPS_DVCjhar_analyzer_69O34.81ug/m327-09-2021 02:20:452021-09-27 01:30
176 Koderma Thermal Power StationKTPS_DVCjhar_analyzer_69PM2.515.56ug/m327-09-2021 02:20:402021-09-27 01:30
177 Koderma Thermal Power StationKTPS_DVCjhar_analyzer_69Wind_Speed0.74m/s27-09-2021 02:20:392021-09-27 01:30
178 Koderma Thermal Power StationKTPS_DVCjhar_analyzer_69Temperature24.12Degree27-09-2021 02:20:392021-09-27 01:30
179 Koderma Thermal Power StationKTPS_DVCjhar_analyzer_69SO24.81ug/m327-09-2021 02:20:232021-09-27 01:30
180 Koderma Thermal Power StationKTPS_DVCjhar_analyzer_69CO2176.25mg/m327-09-2021 02:20:222021-09-27 01:30
181 Koderma Thermal Power StationKTPS_DVCjhar_analyzer_69 NO237.91ug/m327-09-2021 02:20:152021-09-27 01:30
182 Koderma Thermal Power StationKTPS_DVCjhar_analyzer_69NH313.43ug/m327-09-2021 02:20:062021-09-27 01:30
183 Koderma Thermal Power StationKTPS_DVCjhar_analyzer_69NO1.51ug/m327-09-2021 02:03:582021-09-27 01:15
184 Koderma Thermal Power StationKTPS_DVCjhar_analyzer_69Relative humidity 100.00%27-09-2021 02:03:562021-09-27 01:15
185 Koderma Thermal Power StationKTPS_DVCjhar_analyzer_69Atmospheric Pressure 960.24mBar27-09-2021 02:03:562021-09-27 01:15
186 Koderma Thermal Power StationKTPS_DVCjhar_analyzer_69Solar Radiation 1.36W/m227-09-2021 02:03:552021-09-27 01:15
187 Koderma Thermal Power StationKTPS_DVCjhar_analyzer_69Temperature24.10Degree27-09-2021 02:03:422021-09-27 01:15
188 Koderma Thermal Power StationKTPS_DVCjhar_analyzer_69Wind_Speed0.92m/s27-09-2021 02:03:202021-09-27 01:15
189 Koderma Thermal Power StationKTPS_DVCjhar_analyzer_69Wind_Direction112.14Degree27-09-2021 02:03:162021-09-27 01:15
190 Koderma Thermal Power StationKTPS_DVCjhar_analyzer_69PM2.515.56ug/m327-09-2021 02:03:152021-09-27 01:15
191 Koderma Thermal Power StationKTPS_DVCjhar_analyzer_69O34.65ug/m327-09-2021 02:03:092021-09-27 01:15
192 Koderma Thermal Power StationKTPS_DVCjhar_analyzer_69NH315.57ug/m327-09-2021 02:02:542021-09-27 01:15
193 Koderma Thermal Power StationKTPS_DVCjhar_analyzer_69SO24.45ug/m327-09-2021 02:02:522021-09-27 01:15
194 Koderma Thermal Power StationKTPS_DVCjhar_analyzer_69 NO234.81ug/m327-09-2021 02:02:342021-09-27 01:15
195 Koderma Thermal Power StationKTPS_DVCjhar_analyzer_69CO2176.00mg/m327-09-2021 02:02:332021-09-27 01:15
196 Koderma Thermal Power StationKTPS_DVCjhar_analyzer_69NO3.38ug/m327-09-2021 01:45:542021-09-27 01:00
197 Koderma Thermal Power StationKTPS_DVCjhar_analyzer_69Solar Radiation 1.37W/m227-09-2021 01:45:502021-09-27 01:00
198 Koderma Thermal Power StationKTPS_DVCjhar_analyzer_69Atmospheric Pressure 960.47mBar27-09-2021 01:45:442021-09-27 01:00
199 Koderma Thermal Power StationKTPS_DVCjhar_analyzer_69Relative humidity 100.00%27-09-2021 01:45:352021-09-27 01:00
200 Koderma Thermal Power StationKTPS_DVCjhar_analyzer_69PM2.515.57ug/m327-09-2021 01:45:342021-09-27 01:00
201 Koderma Thermal Power StationKTPS_DVCjhar_analyzer_69Temperature24.18Degree27-09-2021 01:45:322021-09-27 01:00
202 Koderma Thermal Power StationKTPS_DVCjhar_analyzer_69Wind_Direction112.42Degree27-09-2021 01:45:322021-09-27 01:00
203 Koderma Thermal Power StationKTPS_DVCjhar_analyzer_69Wind_Speed1.08m/s27-09-2021 01:45:312021-09-27 01:00
204 Koderma Thermal Power StationKTPS_DVCjhar_analyzer_69O34.93ug/m327-09-2021 01:45:312021-09-27 01:00
205 Koderma Thermal Power StationKTPS_DVCjhar_analyzer_69CO2175.38mg/m327-09-2021 01:45:192021-09-27 01:00
206 Koderma Thermal Power StationKTPS_DVCjhar_analyzer_69NH315.19ug/m327-09-2021 01:45:172021-09-27 01:00
207 Koderma Thermal Power StationKTPS_DVCjhar_analyzer_69SO24.80ug/m327-09-2021 01:45:162021-09-27 01:00
208 Koderma Thermal Power StationKTPS_DVCjhar_analyzer_69 NO239.67ug/m327-09-2021 01:45:152021-09-27 01:00
209 Koderma Thermal Power StationKTPS_DVCjhar_analyzer_69Atmospheric Pressure 960.72mBar27-09-2021 01:32:532021-09-27 00:45
210 Koderma Thermal Power StationKTPS_DVCjhar_analyzer_69NO7.32ug/m327-09-2021 01:32:512021-09-27 00:45
211 Koderma Thermal Power StationKTPS_DVCjhar_analyzer_69Solar Radiation 1.38W/m227-09-2021 01:32:342021-09-27 00:45
212 Koderma Thermal Power StationKTPS_DVCjhar_analyzer_69Relative humidity 100.00%27-09-2021 01:32:272021-09-27 00:45
213 Koderma Thermal Power StationKTPS_DVCjhar_analyzer_69Wind_Direction103.64Degree27-09-2021 01:32:142021-09-27 00:45
214 Koderma Thermal Power StationKTPS_DVCjhar_analyzer_69Temperature24.25Degree27-09-2021 01:32:142021-09-27 00:45
215 Koderma Thermal Power StationKTPS_DVCjhar_analyzer_69PM2.522.15ug/m327-09-2021 01:32:142021-09-27 00:45
216 Koderma Thermal Power StationKTPS_DVCjhar_analyzer_69Wind_Speed1.58m/s27-09-2021 01:32:132021-09-27 00:45
217 Koderma Thermal Power StationKTPS_DVCjhar_analyzer_69O34.77ug/m327-09-2021 01:32:082021-09-27 00:45
218 Koderma Thermal Power StationKTPS_DVCjhar_analyzer_69CO2174.86mg/m327-09-2021 01:32:002021-09-27 00:45
219 Koderma Thermal Power StationKTPS_DVCjhar_analyzer_69SO24.85ug/m327-09-2021 01:31:552021-09-27 00:45
220 Koderma Thermal Power StationKTPS_DVCjhar_analyzer_69 NO237.16ug/m327-09-2021 01:31:492021-09-27 00:45
221 Koderma Thermal Power StationKTPS_DVCjhar_analyzer_69NH313.29ug/m327-09-2021 01:31:492021-09-27 00:45
222 Koderma Thermal Power StationKTPS_DVCjhar_analyzer_69NO2.37ug/m327-09-2021 01:17:522021-09-27 00:30
223 Koderma Thermal Power StationKTPS_DVCjhar_analyzer_69Atmospheric Pressure 960.76mBar27-09-2021 01:17:512021-09-27 00:30
224 Koderma Thermal Power StationKTPS_DVCjhar_analyzer_69Solar Radiation 1.36W/m227-09-2021 01:17:352021-09-27 00:30
225 Koderma Thermal Power StationKTPS_DVCjhar_analyzer_69Relative humidity 100.00%27-09-2021 01:17:232021-09-27 00:30
226 Koderma Thermal Power StationKTPS_DVCjhar_analyzer_69Wind_Speed1.11m/s27-09-2021 01:17:202021-09-27 00:30
227 Koderma Thermal Power StationKTPS_DVCjhar_analyzer_69PM2.522.12ug/m327-09-2021 01:17:192021-09-27 00:30
228 Koderma Thermal Power StationKTPS_DVCjhar_analyzer_69Temperature24.35Degree27-09-2021 01:17:172021-09-27 00:30
229 Koderma Thermal Power StationKTPS_DVCjhar_analyzer_69Wind_Direction120.15Degree27-09-2021 01:17:152021-09-27 00:30
230 Koderma Thermal Power StationKTPS_DVCjhar_analyzer_69O34.78ug/m327-09-2021 01:17:112021-09-27 00:30
231 Koderma Thermal Power StationKTPS_DVCjhar_analyzer_69CO2174.57mg/m327-09-2021 01:16:552021-09-27 00:30
232 Koderma Thermal Power StationKTPS_DVCjhar_analyzer_69 NO237.89ug/m327-09-2021 01:16:532021-09-27 00:30
233 Koderma Thermal Power StationKTPS_DVCjhar_analyzer_69NH317.48ug/m327-09-2021 01:16:532021-09-27 00:30
234 Koderma Thermal Power StationKTPS_DVCjhar_analyzer_69SO24.81ug/m327-09-2021 01:16:532021-09-27 00:30
235 Koderma Thermal Power StationKTPS_DVCjhar_analyzer_69Atmospheric Pressure 960.99mBar27-09-2021 01:05:222021-09-27 00:15
236 Koderma Thermal Power StationKTPS_DVCjhar_analyzer_69NO6.47ug/m327-09-2021 01:05:212021-09-27 00:15
237 Koderma Thermal Power StationKTPS_DVCjhar_analyzer_69Solar Radiation 1.37W/m227-09-2021 01:05:172021-09-27 00:15
238 Koderma Thermal Power StationKTPS_DVCjhar_analyzer_69Relative humidity 100.00%27-09-2021 01:05:122021-09-27 00:15
239 Koderma Thermal Power StationKTPS_DVCjhar_analyzer_69Wind_Direction118.53Degree27-09-2021 01:05:112021-09-27 00:15
240 Koderma Thermal Power StationKTPS_DVCjhar_analyzer_69Temperature24.37Degree27-09-2021 01:05:102021-09-27 00:15
241 Koderma Thermal Power StationKTPS_DVCjhar_analyzer_69Wind_Speed1.23m/s27-09-2021 01:05:062021-09-27 00:15
242 Koderma Thermal Power StationKTPS_DVCjhar_analyzer_69PM2.522.12ug/m327-09-2021 01:05:062021-09-27 00:15
243 Koderma Thermal Power StationKTPS_DVCjhar_analyzer_69O34.78ug/m327-09-2021 01:05:042021-09-27 00:15
244 Koderma Thermal Power StationKTPS_DVCjhar_analyzer_69NH315.79ug/m327-09-2021 01:04:572021-09-27 00:15
245 Koderma Thermal Power StationKTPS_DVCjhar_analyzer_69SO24.61ug/m327-09-2021 01:04:542021-09-27 00:15
246 Koderma Thermal Power StationKTPS_DVCjhar_analyzer_69CO2175.00mg/m327-09-2021 01:04:522021-09-27 00:15
247 Koderma Thermal Power StationKTPS_DVCjhar_analyzer_69 NO239.93ug/m327-09-2021 01:04:502021-09-27 00:15
248 Koderma Thermal Power StationKTPS_DVCjhar_analyzer_69NO2.98ug/m327-09-2021 00:48:462021-09-27 00:00
249 Koderma Thermal Power StationKTPS_DVCjhar_analyzer_69Atmospheric Pressure 961.24mBar27-09-2021 00:48:302021-09-27 00:00
250 Koderma Thermal Power StationKTPS_DVCjhar_analyzer_69Solar Radiation 1.38W/m227-09-2021 00:48:292021-09-27 00:00
251 Koderma Thermal Power StationKTPS_DVCjhar_analyzer_69Relative humidity 100.00%27-09-2021 00:48:142021-09-27 00:00
252 Koderma Thermal Power StationKTPS_DVCjhar_analyzer_69Temperature24.37Degree27-09-2021 00:48:142021-09-27 00:00
253 Koderma Thermal Power StationKTPS_DVCjhar_analyzer_69Wind_Speed1.13m/s27-09-2021 00:48:052021-09-27 00:00
254 Koderma Thermal Power StationKTPS_DVCjhar_analyzer_69Wind_Direction107.37Degree27-09-2021 00:48:052021-09-27 00:00
255 Koderma Thermal Power StationKTPS_DVCjhar_analyzer_69PM2.522.14ug/m327-09-2021 00:47:592021-09-27 00:00
256 Koderma Thermal Power StationKTPS_DVCjhar_analyzer_69O34.97ug/m327-09-2021 00:47:592021-09-27 00:00
257 Koderma Thermal Power StationKTPS_DVCjhar_analyzer_69NH314.73ug/m327-09-2021 00:47:292021-09-27 00:00
258 Koderma Thermal Power StationKTPS_DVCjhar_analyzer_69CO2175.00mg/m327-09-2021 00:47:272021-09-27 00:00
259 Koderma Thermal Power StationKTPS_DVCjhar_analyzer_69SO24.77ug/m327-09-2021 00:47:232021-09-27 00:00
260 Koderma Thermal Power StationKTPS_DVCjhar_analyzer_69 NO236.77ug/m327-09-2021 00:47:232021-09-27 00:00